Location: Waco, TX
(31.5480°N, 97.1670°W)
Time: 18:02:03
(UTC-05:00)

Tiangong 2 - Visible Passes

Search period start: 22 October 2017 00:00
Search period end: 01 November 2017 00:00
Orbit: 388 x 391 km, 42.8° (Epoch: 22 October)

Date Brightness Start Highest point End Pass type
(mag) Time Alt. Az. Time Alt. Az. Time Alt. Az.
22 Oct 2.3 05:53:13 40° ESE 05:53:13 40° ESE 05:55:23 10° ESE visible
23 Oct 2.8 06:30:57 19° SW 06:30:58 19° SW 06:33:20 10° S visible
26 Oct 3.4 20:07:43 10° S 20:08:45 15° SSE 20:08:45 15° SSE visible
27 Oct 3.9 20:45:31 10° WSW 20:46:22 17° WSW 20:46:22 17° WSW visible
28 Oct 1.6 19:47:47 10° SW 19:50:48 41° SE 19:51:32 34° ESE visible
29 Oct 2.6 20:26:37 10° W 20:28:56 35° WNW 20:28:56 35° WNW visible
30 Oct 1.1 19:28:28 10° WSW 19:31:39 82° NNW 19:33:54 18° NE visible
31 Oct 2.9 20:08:00 10° WNW 20:10:40 24° NNW 20:11:05 23° N visible
